FW4805 Weather Reports


time (UTC)temp
F
wind
direction
speed
knots
gust
knots
rain 1hr
in
rain 24hr
in
rain mn
in
humidity
%
barometer
mb
20260507165959 70 249 6.1 11.3 0.00 0.00 0.00 36 1016.7
20260507164959 70 247 5.2 10.4 0.00 0.00 0.00 37 1016.7
20260507162000 71 248 3.5 12.2 0.00 0.00 0.00 37 1016.8
20260507161000 71 242 4.3 10.4 0.00 0.00 0.00 38 1016.8
20260507160000 72 231 4.3 10.4 0.00 0.00 0.00 38 1017.0
20260507155000 72 240 3.5 13.9 0.00 0.00 0.00 38 1016.8
20260507152959 71 242 6.1 14.8 0.00 0.00 0.00 39 1016.7
20260507152000 71 248 6.1 13.9 0.00 0.00 0.00 39 1016.7
20260507151000 71 248 8.7 15.6 0.00 0.00 0.00 39 1016.9
20260507145000 72 252 11.3 15.6 0.00 0.00 0.00 41 1016.6
20260507144000 72 247 11.3 14.8 0.00 0.00 0.00 40 1016.4
20260507143000 73 246 11.3 16.5 0.00 0.00 0.00 40 1016.4
20260507142000 73 249 11.3 14.8 0.00 0.00 0.00 41 1016.3
20260507141000 73 251 13.9 19.1 0.00 0.00 0.00 41 1016.4
20260507140000 72 252 13.0 15.6 0.00 0.00 0.00 41 1016.3
20260507135000 72 251 13.0 15.6 0.00 0.00 0.00 42 1016.6
20260507134000 73 248 13.9 16.5 0.00 0.00 0.00 39 1016.6
20260507133000 75 250 12.2 19.1 0.00 0.00 0.00 37 1016.6
20260507130000 75 254 11.3 17.4 0.00 0.00 0.00 37 1016.6
20260507125000 76 261 12.2 20.0 0.00 0.00 0.00 37 1016.6
20260507122959 75 263 13.0 20.0 0.00 0.00 0.00 32 1016.7
20260507122000 76 260 12.2 15.6 0.00 0.00 0.00 32 1016.9
20260507121000 75 264 13.9 20.9 0.00 0.00 0.00 34 1016.9
20260507120000 74 265 16.5 20.0 0.00 0.00 0.00 37 1017.1
20260507114000 75 270 14.8 21.7 0.00 0.00 0.00 34 1017.1
20260507113000 75 272 14.8 19.1 0.00 0.00 0.00 37 1017.0
20260507112000 75 270 14.8 21.7 0.00 0.00 0.00 38 1016.9
20260507111000 75 270 13.9 19.1 0.00 0.00 0.00 41 1016.9
20260507110000 75 268 13.9 15.6 0.00 0.00 0.00 39 1016.8
20260507104000 75 273 13.9 16.5 0.00 0.00 0.00 39 1016.8
20260507103000 74 268 14.8 15.6 0.00 0.00 0.00 35 1016.7
20260507102000 75 270 13.0 19.1 0.00 0.00 0.00 38 1016.7
20260507101000 75 278 13.0 17.4 0.00 0.00 0.00 39 1016.5
20260507095000 75 270 13.0 19.1 0.00 0.00 0.00 33 1016.4
20260507094000 75 270 13.9 16.5 0.00 0.00 0.00 34 1016.7
20260507093000 74 270 14.8 21.7 0.00 0.00 0.00 40 1016.8
20260507092001 74 265 13.0 20.9 0.00 0.00 0.00 43 1016.9
20260507091000 74 269 13.0 17.4 0.00 0.00 0.00 41 1017.0
20260507090000 74 264 13.0 19.1 0.00 0.00 0.00 41 1017.0
20260507085000 73 261 12.2 14.8 0.00 0.00 0.00 46 1016.9
20260507084000 73 265 13.0 16.5 0.00 0.00 0.00 45 1016.9
20260507083000 73 267 13.9 20.0 0.00 0.00 0.00 46 1017.0
20260507082000 73 270 13.9 17.4 0.00 0.00 0.00 41 1016.8
20260507081000 74 270 13.9 20.0 0.00 0.00 0.00 40 1016.6
20260507080000 74 263 11.3 14.8 0.00 0.00 0.00 37 1016.6
20260507075000 74 262 10.4 14.8 0.00 0.00 0.00 35 1016.5
20260507074000 75 260 8.7 15.6 0.00 0.00 0.00 35 1016.5
20260507073000 75 248 7.0 11.3 0.00 0.00 0.00 34 1016.5
20260507072000 75 265 6.1 11.3 0.00 0.00 0.00 33 1016.3
20260507071000 75 251 5.2 9.6 0.00 0.00 0.00 33 1016.3
20260507070000 74 224 3.5 9.6 0.00 0.00 0.00 34 1016.4
20260507064000 72 90 2.6 4.3 0.00 0.00 0.00 46 1016.3
20260507061000 70 88 4.3 7.0 0.00 0.00 0.00 53 1016.2
20260507060000 69 88 4.3 9.6 0.00 0.00 0.00 54 1016.2
20260507055000 72 148 0.9 3.5 0.00 0.00 0.00 44 1016.2
20260507054000 71 203 0.9 5.2 0.00 0.00 0.00 47 1016.2
20260507053000 70 215 1.7 5.2 0.00 0.00 0.00 51 1016.2
20260507052000 69 233 2.6 7.0 0.00 0.00 0.00 52 1016.2
20260507051000 68 243 4.3 10.4 0.00 0.00 0.00 56 1016.2
20260507045000 67 250 5.2 10.4 0.00 0.00 0.00 60 1016.0
20260507044000 66 255 7.0 11.3 0.00 0.00 0.00 62 1015.8
20260507042000 65 261 2.6 10.4 0.00 0.00 0.00 63 1015.8
20260507041000 64 253 1.7 8.7 0.00 0.00 0.00 63 1015.6
20260507040001 64 268 4.3 11.3 0.00 0.00 0.00 62 1015.5
20260507035000 64 270 5.2 10.4 0.00 0.00 0.00 63 1015.5
20260507034000 64 268 3.5 9.6 0.00 0.00 0.00 64 1015.5
20260507032000 64 265 4.3 11.3 0.00 0.00 0.00 63 1015.3
20260507031000 64 269 4.3 9.6 0.00 0.00 0.00 62 1015.3
20260507030000 64 265 4.3 8.7 0.00 0.00 0.00 60 1015.1
20260507024001 62 317 0.0 3.5 0.00 0.00 0.00 42 1014.8
20260507021000 62 292 0.9 4.3 0.00 0.00 0.00 44 1014.6
20260507020000 62 298 0.0 0.9 0.00 0.00 0.00 42 1014.5
20260507015000 62 301 0.0 0.9 0.00 0.00 0.00 44 1014.2
20260507012001 63 280 0.9 6.1 0.00 0.00 0.00 39 1014.4
20260507011001 63 270 2.6 6.1 0.00 0.00 0.00 39 1014.4
20260507010001 63 270 3.5 5.2 0.00 0.00 0.00 41 1014.4
20260507005001 64 267 4.3 8.7 0.00 0.00 0.00 40 1014.7
20260507003000 63 270 5.2 8.7 0.00 0.00 0.00 43 1014.8
20260507002000 63 266 4.3 6.1 0.00 0.00 0.00 43 1014.8
20260507001000 63 270 4.3 7.0 0.00 0.00 0.00 42 1014.9
20260507000000 64 272 2.6 4.3 0.00 0.00 0.00 42 1015.0
20260506235000 63 267 1.7 4.3 0.00 0.00 0.00 43 1014.9
20260506234000 62 270 0.9 4.3 0.00 0.00 0.00 44 1014.8
20260506233001 64 267 0.9 3.5 0.00 0.00 0.00 40 1014.9
20260506232001 65 264 1.7 6.1 0.00 0.00 0.00 39 1015.1
20260506231001 65 274 1.7 6.1 0.00 0.00 0.00 39 1015.1
20260506230001 66 278 1.7 4.3 0.00 0.00 0.00 40 1015.1
20260506224001 65 278 2.6 6.1 0.00 0.00 0.00 48 1015.4
20260506223001 65 272 4.3 9.6 0.00 0.00 0.00 49 1015.6
20260506222001 66 271 5.2 9.6 0.00 0.00 0.00 48 1015.6
20260506221001 66 270 3.5 9.6 0.00 0.00 0.00 49 1015.7
20260506215001 66 275 2.6 6.1 0.00 0.00 0.00 50 1015.7
20260506214000 66 273 4.3 8.7 0.00 0.00 0.00 51 1015.6
20260506213000 66 275 4.3 8.7 0.00 0.00 0.00 52 1015.7
20260506212000 66 274 5.2 7.0 0.00 0.00 0.00 51 1015.6
20260506211000 66 272 7.0 8.7 0.00 0.00 0.00 51 1015.6
20260506205001 66 271 6.1 8.7 0.00 0.00 0.00 49 1015.5
20260506204001 66 270 6.1 9.6 0.00 0.00 0.00 49 1015.6
20260506203001 66 275 5.2 8.7 0.00 0.00 0.00 48 1015.5
20260506202001 66 274 5.2 7.0 0.00 0.00 0.00 48 1015.6
20260506201001 66 274 5.2 7.0 0.00 0.00 0.00 48 1015.5
20260506200001 66 274 6.1 7.0 0.00 0.00 0.00 49 1015.5
20260506195001 66 273 5.2 8.7 0.00 0.00 0.00 49 1015.3
20260506194001 66 270 4.3 9.6 0.00 0.00 0.00 50 1015.4
20260506193001 65 270 5.2 7.0 0.00 0.00 0.00 50 1015.3
20260506191001 65 272 3.5 6.1 0.00 0.00 0.00 51 1015.2
20260506190001 66 272 4.3 7.0 0.00 0.00 0.00 51 1015.2
20260506185001 66 273 3.5 6.1 0.00 0.00 0.00 51 1015.0
20260506184001 67 276 4.3 7.0 0.00 0.00 0.00 50 1015.0
20260506183001 66 273 4.3 7.0 0.00 0.00 0.00 51 1014.9
20260506181001 66 276 3.5 6.1 0.00 0.00 0.00 51 1014.8
20260506180001 67 275 4.3 9.6 0.00 0.00 0.00 51 1014.6
20260506175001 67 270 5.2 8.7 0.00 0.00 0.00 51 1014.6
20260506174001 67 267 5.2 13.9 0.00 0.00 0.00 51 1014.4
20260506172001 67 266 5.2 8.7 0.00 0.00 0.00 50 1014.5